Find Starlink 5998

NORAD ID: 56468 Int'l Des: 2023-064 Owner: SPXS Country: US Constellation: starlink operational
LEOCIRCULAR

实时位置

正在加载3D地球...

关于 Starlink 5998

正在加载描述...

即将过境

Passes for default location (London). Set your location on the main map for personalized predictions.

高度历史

Loading altitude history...

两行轨道根数

1 56468U 23064W 26126.39073679 -.00000289 00000-0 -16455-4 0 9991
2 56468 69.9996 358.7895 0002612 271.4067 88.6792 14.98329863163892
Epoch: May 6, 2026 • Age: 11 hours

当前状态

高度 593.6 km
速度 7.56 km/s
星下点 -62.08°S, 54.51°E
发射日期 May 10, 2023
运行时间 2.9 years
类型 internet

技术详情

分类 Payload
质量 305.00 kg
干质量 290.00 kg
总质量 305.00 kg
长度 0.20 m
直径 2.80 m
跨度 9.00 m
形状 Box + pan
制造商 SPXS
平台类型 Starlink
阶段状态 In Orbit
所有者/国家 SPXS/US

Most Searched